Weather History for Branson, MO

Change the Weather History Date:

Sunday, December 23, 2012

  Actual Average (KHRO) Record (KHRO)
Temperature  
Mean Temperature 54 °F 36 °F  
Max Temperature 62 °F 46 °F 72 °F (1964)
Min Temperature 44 °F 27 °F -11 °F (1989)
Degree Days  
Heating Degree Days 11 29  
Month to date heating degree days 603  
Since 1 July heating degree days 1367  
Cooling Degree Days 0 0  
Month to date cooling degree days 0  
Year to date cooling degree days 1416  
Growing Degree Days 4 (Base 50)    
Moisture  
Dew Point 39 °F    
Average Humidity 62    
Maximum Humidity 82    
Minimum Humidity 37    
Precipitation  
Precipitation 0.00 in 0.10 in 1.38 in (1979)
Month to date precipitation 2.45  
Year to date precipitation 43.39  
Snow  
Snow 0.00 in 0.10 in 13.00 in (1966)
Month to date snowfall 0.5  
Since 1 July snowfall 1.0  
Snow Depth -    
Sea Level Pressure  
Sea Level Pressure 29.89 in    
Wind  
Wind Speed 6 mph (SW)    
Max Wind Speed 9 mph    
Max Gust Speed -    
Visibility 10 miles    
Events      
T = Trace of Precipitation, MM = Missing Value Source: NWS Daily Summary

Daily Weather History Graph

Daily Weather History Graph

Search for Another Location

Airport:

Trip Planner

Search our weather history database for the weather conditions in past years. The results will help you decide how hot, cold, wet, or windy it might be!

Date:

Astronomy

Dec. 23, 2012 Rise Set
Actual Time 7:22 AM CST 5:02 PM CST
Civil Twilight 6:53 AM CST 5:31 PM CST
Nautical Twilight 6:21 AM CST 6:03 PM CST
Astronomical Twilight 5:49 AM CST 6:34 PM CST
Moon 1:50 PM CST (12/23) 3:08 AM CST (12/23)
Length of Visible Light 10h 37m
Length of Day
9h 40m
Waxing Gibbous, 82% of the Moon is Illuminated
Dec 23
Waxing Gibbous
Dec 28
Full
Jan 4
Last Quarter
Jan 11
New
Jan 18
First Quarter

Hourly Weather History & Observations

Time (CST) Temp. Windchill Dew Point Humidity Pressure Visibility Wind Dir Wind Speed Gust Speed Precip Events Conditions
12:15 AM 50.0 °F - 24.8 °F 37% 29.99 in 10.0 mi SW 6.9 mph - N/A   Partly Cloudy
12:35 AM 50.0 °F - 26.6 °F 40% 29.98 in 10.0 mi SW 8.1 mph - N/A   Partly Cloudy
12:55 AM 50.0 °F - 28.4 °F 43% 29.98 in 10.0 mi SW 6.9 mph - N/A   Partly Cloudy
1:15 AM 50.0 °F - 28.4 °F 43% 29.97 in 10.0 mi SW 6.9 mph - N/A   Clear
1:35 AM 50.0 °F - 30.2 °F 47% 29.96 in 10.0 mi SW 6.9 mph - N/A   Clear
1:55 AM 50.0 °F - 32.0 °F 50% 29.96 in 10.0 mi SSW 5.8 mph - N/A   Clear
2:15 AM 50.0 °F - 32.0 °F 50% 29.96 in 10.0 mi SSW 4.6 mph - N/A   Clear
2:35 AM 50.0 °F - 32.0 °F 50% 29.95 in 10.0 mi SW 4.6 mph - N/A   Partly Cloudy
2:55 AM 50.0 °F - 33.8 °F 54% 29.95 in 10.0 mi SSW 3.5 mph - N/A   Partly Cloudy
3:15 AM 50.0 °F - 33.8 °F 54% 29.95 in 10.0 mi SW 3.5 mph - N/A   Partly Cloudy
3:35 AM 50.0 °F - 35.6 °F 58% 29.95 in 10.0 mi SSW 3.5 mph - N/A   Partly Cloudy
3:55 AM 50.0 °F - 35.6 °F 58% 29.94 in 10.0 mi SSW 4.6 mph - N/A   Partly Cloudy
4:15 AM 50.0 °F - 37.4 °F 62% 29.94 in 10.0 mi SW 5.8 mph - N/A   Partly Cloudy
4:35 AM 50.0 °F - 37.4 °F 62% 29.93 in 10.0 mi SSW 6.9 mph - N/A   Partly Cloudy
4:55 AM 50.0 °F - 37.4 °F 62% 29.93 in 10.0 mi WSW 3.5 mph - N/A   Partly Cloudy
5:15 AM 50.0 °F - 37.4 °F 62% 29.93 in 10.0 mi SW 4.6 mph - N/A   Partly Cloudy
5:35 AM 50.0 °F - 39.2 °F 66% 29.93 in 10.0 mi SSW 4.6 mph - N/A   Partly Cloudy
6:45 AM 50.0 °F - 39.2 °F 66% 29.94 in 10.0 mi SSW 4.6 mph - N/A   Scattered Clouds
7:45 AM 48.2 °F - 41.0 °F 76% 29.93 in 10.0 mi South 4.6 mph - N/A   Mostly Cloudy
8:45 AM 51.8 °F - 44.6 °F 76% 29.94 in 10.0 mi SSW 5.8 mph - N/A   Mostly Cloudy
9:53 AM 55.4 °F - 44.6 °F 67% 29.94 in 10.0 mi SW 5.8 mph - N/A   Scattered Clouds
10:45 AM 57.2 °F - 44.6 °F 63% 29.93 in 10.0 mi SW 6.9 mph - N/A   Scattered Clouds
12:51 PM 60.8 °F - 42.8 °F 52% 29.86 in 10.0 mi SSW 8.1 mph - N/A   Mostly Cloudy
1:45 PM 60.8 °F - 42.8 °F 52% 29.84 in 10.0 mi South 3.5 mph - N/A   Scattered Clouds
2:45 PM 62.6 °F - 41.0 °F 45% 29.82 in 10.0 mi SW 5.8 mph - N/A   Scattered Clouds
3:45 PM 60.8 °F - 41.0 °F 48% 29.81 in 10.0 mi WSW 4.6 mph - N/A   Partly Cloudy
4:46 PM 57.2 °F - 41.0 °F 55% 29.82 in 10.0 mi SW 4.6 mph - N/A   Scattered Clouds
5:48 PM 53.6 °F - 41.0 °F 62% 29.83 in 10.0 mi SSW 4.6 mph - N/A   Scattered Clouds
6:52 PM 51.8 °F - 41.0 °F 67% 29.84 in 10.0 mi South 4.6 mph - N/A   Mostly Cloudy
7:53 PM 50.0 °F - 44.6 °F 82% 29.83 in 10.0 mi South 5.8 mph - N/A   Mostly Cloudy
8:15 PM 51.8 °F - 44.6 °F 76% 29.82 in 10.0 mi South 3.5 mph - N/A   Overcast
8:35 PM 53.6 °F - 44.6 °F 72% 29.82 in 10.0 mi South 3.5 mph - N/A   Overcast
8:50 PM 53.6 °F - 44.6 °F 72% 29.82 in 10.0 mi South 5.8 mph - N/A   Overcast
8:55 PM 53.6 °F - 44.6 °F 72% 29.82 in 10.0 mi Calm Calm - N/A   Overcast
9:15 PM 53.6 °F - 44.6 °F 72% 29.82 in 10.0 mi Calm Calm - N/A   Overcast
9:35 PM 50.0 °F - 42.8 °F 76% 29.82 in 10.0 mi NW 5.8 mph - N/A   Overcast
9:55 PM 50.0 °F - 42.8 °F 76% 29.83 in 10.0 mi NW 6.9 mph - N/A   Overcast
10:15 PM 50.0 °F - 42.8 °F 76% 29.83 in 10.0 mi NW 6.9 mph - N/A   Overcast
10:35 PM 48.2 °F - 41.0 °F 76% 29.84 in 10.0 mi NW 8.1 mph - N/A   Overcast
10:55 PM 48.2 °F - 41.0 °F 76% 29.84 in 10.0 mi NW 5.8 mph - N/A   Mostly Cloudy
11:15 PM 46.4 °F 42.9 °F 41.0 °F 81% 29.84 in 10.0 mi NW 6.9 mph - N/A   Overcast
11:35 PM 46.4 °F 42.9 °F 39.2 °F 76% 29.82 in 10.0 mi NW 6.9 mph - N/A   Overcast
11:55 PM 44.6 °F 39.7 °F 37.4 °F 76% 29.83 in 10.0 mi NW 9.2 mph - N/A   Mostly Cloudy